• In Moldova, Republic
  • List of Countries
  • For 7 days
  • Water Temperature
  • Satellite Maps
  • Weather Map
  • Weather Widgets
  • user-avatar
    Login

    Hourly Weather Albany

    Today, 25 June, Sunday

    Time Temperature Precipitation Wind Pressure Humidity
    00:00 +13°C° 0 mm 3 mps 767 mmHg 74%
    01:00 +14°C° 0 mm 2 mps 767 mmHg 74%
    02:00 +14°C° 0 mm 2 mps 766 mmHg 76%
    03:00 +13°C° 0 mm 2 mps 766 mmHg 78%
    04:00 +13°C° 0 mm 2 mps 766 mmHg 79%
    05:00 +13°C° 0 mm 2 mps 766 mmHg 80%
    06:00 +13°C° 0.2 mm 2 mps 766 mmHg 82%
    07:00 +13°C° 0.2 mm 2 mps 766 mmHg 84%
    08:00 +13°C° 0 mm 2 mps 767 mmHg 84%
    09:00 +14°C° 0.2 mm 2 mps 767 mmHg 82%
    10:00 +14°C° 0.2 mm 2 mps 767 mmHg 81%
    11:00 +14°C° 0.2 mm 2 mps 767 mmHg 80%
    12:00 +15°C° 0.2 mm 2 mps 766 mmHg 78%
    13:00 +15°C° 0.2 mm 2 mps 766 mmHg 77%
    14:00 +15°C° 0 mm 2 mps 766 mmHg 75%
    15:00 +15°C° 0.1 mm 2 mps 766 mmHg 78%
    16:00 +14°C° 0.1 mm 2 mps 766 mmHg 81%
    17:00 +13°C° 0.1 mm 2 mps 766 mmHg 84%
    18:00 +12°C° 0 mm 2 mps 766 mmHg 84%
    19:00 +12°C° 0 mm 1 mps 766 mmHg 84%
    20:00 +11°C° 0 mm 1 mps 766 mmHg 85%
    21:00 +12°C° 0 mm 1 mps 766 mmHg 84%
    22:00 +12°C° 0 mm 1 mps 766 mmHg 84%
    23:00 +12°C° 0 mm 1 mps 766 mmHg 83%

    Tomorrow, 26 June, Monday

    Time Temperature Precipitation Wind Pressure Humidity
    00:00 +12°C° 0 mm 1 mps 766 mmHg 84%
    01:00 +12°C° 0 mm 2 mps 766 mmHg 84%
    02:00 +12°C° 0 mm 2 mps 766 mmHg 85%
    03:00 +11°C° 0.1 mm 3 mps 766 mmHg 86%
    04:00 +10°C° 0.1 mm 3 mps 766 mmHg 88%
    05:00 +10°C° 0.1 mm 3 mps 765 mmHg 89%
    06:00 +10°C° 0.2 mm 4 mps 766 mmHg 89%
    07:00 +10°C° 0.2 mm 4 mps 766 mmHg 89%
    08:00 +10°C° 0.2 mm 4 mps 766 mmHg 89%
    09:00 +11°C° 0.4 mm 4 mps 766 mmHg 86%
    10:00 +13°C° 0.4 mm 4 mps 766 mmHg 84%
    11:00 +14°C° 0.4 mm 5 mps 766 mmHg 81%
    12:00 +14°C° 0.4 mm 5 mps 765 mmHg 82%
    13:00 +14°C° 0.4 mm 5 mps 765 mmHg 82%
    14:00 +14°C° 0.4 mm 5 mps 765 mmHg 83%
    15:00 +13°C° 0.3 mm 5 mps 765 mmHg 84%
    16:00 +13°C° 0.3 mm 5 mps 765 mmHg 84%
    17:00 +12°C° 0.3 mm 5 mps 765 mmHg 85%
    18:00 +12°C° 0.1 mm 5 mps 765 mmHg 84%
    19:00 +12°C° 0.1 mm 5 mps 766 mmHg 83%
    20:00 +10°C° 0.1 mm 5 mps 766 mmHg 83%
    21:00 +11°C° 0.2 mm 4 mps 766 mmHg 85%
    22:00 +11°C° 0.2 mm 4 mps 766 mmHg 87%
    23:00 +11°C° 0.2 mm 4 mps 766 mmHg 89%

    Day after tomorrow, 27 June, Tuesday

    Time Temperature Precipitation Wind Pressure Humidity
    00:00 +10°C° 0.4 mm 3 mps 766 mmHg 90%
    01:00 +10°C° 0.4 mm 3 mps 766 mmHg 91%
    02:00 +10°C° 0.4 mm 3 mps 766 mmHg 92%
    03:00 +10°C° 0.4 mm 3 mps 766 mmHg 92%
    04:00 +11°C° 0.4 mm 4 mps 766 mmHg 91%
    05:00 +11°C° 0.4 mm 4 mps 766 mmHg 91%
    06:00 +11°C° 0.2 mm 4 mps 766 mmHg 90%
    07:00 +12°C° 0.2 mm 4 mps 767 mmHg 90%
    08:00 +12°C° 0.2 mm 5 mps 767 mmHg 89%
    09:00 +13°C° 0.2 mm 5 mps 768 mmHg 87%
    10:00 +13°C° 0.2 mm 5 mps 768 mmHg 84%
    11:00 +14°C° 0.2 mm 5 mps 768 mmHg 81%
    12:00 +14°C° 0.2 mm 5 mps 768 mmHg 79%
    13:00 +14°C° 0.2 mm 5 mps 768 mmHg 77%
    14:00 +14°C° 0.2 mm 5 mps 768 mmHg 75%
    15:00 +14°C° 0.1 mm 5 mps 768 mmHg 75%
    16:00 +14°C° 0.1 mm 5 mps 768 mmHg 75%
    17:00 +13°C° 0.1 mm 5 mps 769 mmHg 75%
    18:00 +13°C° 0 mm 5 mps 769 mmHg 75%
    19:00 +13°C° 0 mm 5 mps 770 mmHg 75%
    20:00 +13°C° 0 mm 5 mps 770 mmHg 75%
    21:00 +13°C° 0 mm 4 mps 771 mmHg 75%
    22:00 +13°C° 0 mm 4 mps 771 mmHg 75%
    23:00 +13°C° 0 mm 4 mps 771 mmHg 75%

    28 June, Wednesday

    Time Temperature Precipitation Wind Pressure Humidity
    00:00 +13°C° 0 mm 3 mps 771 mmHg 75%
    01:00 +12°C° 0 mm 3 mps 771 mmHg 75%
    02:00 +12°C° 0 mm 3 mps 771 mmHg 74%
    03:00 +13°C° 0 mm 2 mps 771 mmHg 74%
    04:00 +13°C° 0 mm 2 mps 771 mmHg 74%
    05:00 +12°C° 0 mm 2 mps 771 mmHg 74%
    06:00 +12°C° 0 mm 2 mps 771 mmHg 73%
    07:00 +12°C° 0 mm 2 mps 772 mmHg 73%
    08:00 +13°C° 0 mm 2 mps 772 mmHg 72%
    09:00 +14°C° 0 mm 2 mps 772 mmHg 66%
    10:00 +15°C° 0 mm 2 mps 772 mmHg 60%
    11:00 +16°C° 0 mm 2 mps 772 mmHg 54%
    12:00 +17°C° 0 mm 2 mps 772 mmHg 52%
    13:00 +17°C° 0 mm 2 mps 771 mmHg 50%
    14:00 +17°C° 0 mm 2 mps 771 mmHg 48%
    15:00 +16°C° 0 mm 2 mps 771 mmHg 53%
    16:00 +15°C° 0 mm 2 mps 771 mmHg 59%
    17:00 +14°C° 0 mm 2 mps 771 mmHg 64%
    18:00 +13°C° 0 mm 2 mps 771 mmHg 67%
    19:00 +13°C° 0 mm 2 mps 772 mmHg 69%
    20:00 +12°C° 0 mm 3 mps 772 mmHg 71%
    21:00 +11°C° 0 mm 3 mps 772 mmHg 74%
    22:00 +11°C° 0 mm 3 mps 772 mmHg 76%
    23:00 +10°C° 0 mm 3 mps 772 mmHg 78%

    29 June, Thursday

    Time Temperature Precipitation Wind Pressure Humidity
    00:00 +10°C° 0 mm 3 mps 771 mmHg 80%
    01:00 +8°C° 0 mm 4 mps 771 mmHg 82%
    02:00 +8°C° 0 mm 4 mps 770 mmHg 84%
    03:00 +8°C° 0 mm 4 mps 770 mmHg 84%
    04:00 +8°C° 0 mm 4 mps 770 mmHg 84%
    05:00 +8°C° 0 mm 4 mps 770 mmHg 85%
    06:00 +8°C° 0 mm 5 mps 770 mmHg 83%
    07:00 +8°C° 0 mm 5 mps 770 mmHg 82%
    08:00 +8°C° 0 mm 5 mps 770 mmHg 80%
    09:00 +10°C° 0 mm 5 mps 770 mmHg 72%
    10:00 +13°C° 0 mm 5 mps 770 mmHg 63%
    11:00 +15°C° 0 mm 5 mps 769 mmHg 54%
    12:00 +15°C° 0 mm 5 mps 768 mmHg 51%
    13:00 +16°C° 0 mm 5 mps 767 mmHg 47%
    14:00 +17°C° 0 mm 5 mps 767 mmHg 44%
    15:00 +17°C° 0 mm 4 mps 766 mmHg 48%
    16:00 +14°C° 0 mm 4 mps 766 mmHg 52%
    17:00 +13°C° 0 mm 4 mps 766 mmHg 55%
    18:00 +12°C° 0 mm 4 mps 766 mmHg 58%
    19:00 +12°C° 0 mm 4 mps 766 mmHg 61%
    20:00 +10°C° 0 mm 5 mps 766 mmHg 64%
    21:00 +10°C° 0 mm 5 mps 766 mmHg 65%
    22:00 +10°C° 0 mm 5 mps 765 mmHg 67%
    23:00 +10°C° 0 mm 6 mps 765 mmHg 68%

    30 June, Friday

    Time Temperature Precipitation Wind Pressure Humidity
    00:00 +10°C° 0 mm 6 mps 764 mmHg 67%
    01:00 +10°C° 0 mm 6 mps 764 mmHg 66%
    02:00 +10°C° 0 mm 6 mps 764 mmHg 65%
    03:00 +10°C° 0 mm 6 mps 763 mmHg 63%
    04:00 +10°C° 0 mm 6 mps 763 mmHg 61%
    05:00 +11°C° 0 mm 6 mps 763 mmHg 60%
    06:00 +11°C° 0 mm 6 mps 763 mmHg 59%
    07:00 +11°C° 0 mm 6 mps 762 mmHg 59%
    08:00 +11°C° 0 mm 6 mps 762 mmHg 59%
    09:00 +13°C° 0 mm 6 mps 762 mmHg 57%
    10:00 +14°C° 0 mm 6 mps 762 mmHg 55%
    11:00 +15°C° 0 mm 6 mps 761 mmHg 53%
    12:00 +16°C° 0.1 mm 6 mps 760 mmHg 55%
    13:00 +16°C° 0.1 mm 6 mps 760 mmHg 57%
    14:00 +16°C° 0.1 mm 6 mps 759 mmHg 59%
    15:00 +16°C° 0.6 mm 6 mps 759 mmHg 65%
    16:00 +15°C° 0.6 mm 6 mps 759 mmHg 71%
    17:00 +14°C° 0.6 mm 6 mps 759 mmHg 76%
    18:00 +14°C° 0.6 mm 6 mps 759 mmHg 79%
    19:00 +13°C° 0.6 mm 6 mps 759 mmHg 83%
    20:00 +13°C° 0.6 mm 6 mps 759 mmHg 86%
    21:00 +13°C° 0.5 mm 5 mps 759 mmHg 88%
    22:00 +13°C° 0.5 mm 5 mps 759 mmHg 89%
    23:00 +13°C° 0.5 mm 5 mps 759 mmHg 91%
    Show more